Zurück zum Katalog

DELTA 1 DEB

AktivUNKNOWN
NORAD 10469·DEBRIS·🇺🇸 United States

Gestartet Jul 14, 1977 von Cape Canaveral Space Force Station

Loading…

Nächste Überflüge (nächste 24 Stunden)

TLE

AktuellSource: Space-Track

Epoche: Sep 13, 2026, 08:58 UTC

1 10469U 77065EB  26256.37403418  .00000291  00000-0  22055-3 0  9995
2 10469  29.1233 323.0108 0865185 204.2026 151.5414 12.72348383281630

Verfolge DELTA 1 DEB in Echtzeit mit AllMySat

Download on the App Store